| time (UTC) | temp F | wind direction | speed MPH | gust MPH | rain 1hr in | rain 24hr in | rain mn in | humidity % | barometer mb |
| 20260508065422 | 62 | 296 | 1.0 | 7.0 | 0.00 | 0.00 | 0.00 | 62 | 1014.8 |
| 20260508064920 | 62 | 330 | 1.0 | 6.0 | 0.00 | 0.00 | 0.00 | 61 | 1014.9 |
| 20260508064417 | 63 | 321 | 2.0 | 7.0 | 0.00 | 0.00 | 0.00 | 60 | 1014.9 |
| 20260508063915 | 63 | 241 | 3.0 | 6.0 | 0.00 | 0.00 | 0.00 | 58 | 1015.1 |
| 20260508063412 | 63 | 278 | 3.0 | 4.0 | 0.00 | 0.00 | 0.00 | 57 | 1015.0 |
| 20260508062909 | 64 | 39 | 4.0 | 6.0 | 0.00 | 0.00 | 0.00 | 56 | 1015.0 |
| 20260508062407 | 64 | 135 | 4.0 | 6.0 | 0.00 | 0.00 | 0.00 | 55 | 1015.0 |
| 20260508061904 | 64 | 234 | 2.0 | 4.0 | 0.00 | 0.00 | 0.00 | 54 | 1014.9 |
| 20260508061402 | 64 | 214 | 1.0 | 2.0 | 0.00 | 0.00 | 0.00 | 53 | 1014.9 |
| 20260508060857 | 64 | 266 | 1.0 | 7.0 | 0.00 | 0.00 | 0.00 | 52 | 1015.1 |
| 20260508060355 | 64 | 257 | 2.0 | 9.0 | 0.00 | 0.00 | 0.00 | 52 | 1015.1 |
| 20260508055850 | 64 | 257 | 1.0 | 2.0 | 0.00 | 0.00 | 0.00 | 52 | 1015.0 |
| 20260508055348 | 64 | 246 | 1.0 | 4.0 | 0.00 | 0.00 | 0.00 | 52 | 1015.3 |
| 20260508054844 | 64 | 264 | 2.0 | 6.0 | 0.00 | 0.00 | 0.00 | 52 | 1015.1 |
| 20260508054342 | 64 | 326 | 3.0 | 4.0 | 0.00 | 0.00 | 0.00 | 52 | 1015.1 |
| 20260508053838 | 64 | 219 | 2.0 | 3.0 | 0.00 | 0.00 | 0.00 | 52 | 1015.0 |
| 20260508053336 | 64 | 323 | 1.0 | 8.0 | 0.00 | 0.00 | 0.00 | 52 | 1015.0 |
| 20260508052833 | 64 | 261 | 0.0 | 2.0 | 0.00 | 0.00 | 0.00 | 52 | 1015.1 |
| 20260508052330 | 64 | 277 | 1.0 | 3.0 | 0.00 | 0.00 | 0.00 | 52 | 1015.0 |
| 20260508051826 | 63 | 302 | 0.0 | 2.0 | 0.00 | 0.00 | 0.00 | 52 | 1014.9 |
| 20260508051322 | 63 | 315 | 3.0 | 6.0 | 0.00 | 0.00 | 0.00 | 52 | 1015.1 |
| 20260508050818 | 62 | 278 | 1.0 | 2.0 | 0.00 | 0.00 | 0.00 | 54 | 1015.1 |
| 20260508050316 | 63 | 321 | 1.0 | 2.0 | 0.00 | 0.00 | 0.00 | 54 | 1015.0 |
| 20260508045811 | 62 | 259 | 1.0 | 1.0 | 0.00 | 0.00 | 0.00 | 54 | 1015.2 |
| 20260508045309 | 62 | 179 | 0.0 | 1.0 | 0.00 | 0.00 | 0.00 | 55 | 1015.1 |
| 20260508044807 | 62 | 243 | 0.0 | 2.0 | 0.00 | 0.00 | 0.00 | 55 | 1015.3 |
| 20260508044303 | 62 | 245 | 0.0 | 1.0 | 0.00 | 0.00 | 0.00 | 55 | 1015.1 |
| 20260508043759 | 62 | 160 | 1.0 | 2.0 | 0.00 | 0.00 | 0.00 | 54 | 1015.2 |
| 20260508043257 | 62 | 269 | 1.0 | 1.0 | 0.00 | 0.00 | 0.00 | 54 | 1015.3 |
| 20260508042753 | 62 | 321 | 0.0 | 1.0 | 0.00 | 0.00 | 0.00 | 54 | 1015.5 |
| 20260508042251 | 62 | 186 | 0.0 | 1.0 | 0.00 | 0.00 | 0.00 | 54 | 1015.3 |
| 20260508041747 | 62 | 155 | 0.0 | 1.0 | 0.00 | 0.00 | 0.00 | 54 | 1015.7 |
| 20260508041244 | 61 | 219 | 0.0 | 1.0 | 0.00 | 0.00 | 0.00 | 55 | 1015.5 |
| 20260508040740 | 61 | 225 | 0.0 | 0.0 | 0.00 | 0.00 | 0.00 | 54 | 1015.5 |
| 20260508040238 | 62 | 153 | 0.0 | 0.0 | 0.00 | 0.00 | 0.00 | 53 | 1015.5 |
| 20260508035735 | 62 | 231 | 0.0 | 1.0 | 0.00 | 0.00 | 0.00 | 52 | 1015.3 |
| 20260508035232 | 62 | 296 | 0.0 | 0.0 | 0.00 | 0.00 | 0.00 | 51 | 1015.5 |
| 20260508034729 | 62 | 296 | 0.0 | 1.0 | 0.00 | 0.00 | 0.00 | 51 | 1015.5 |
| 20260508034226 | 63 | 235 | 1.0 | 1.0 | 0.00 | 0.00 | 0.00 | 50 | 1015.5 |
| 20260508033723 | 64 | 242 | 0.0 | 0.0 | 0.00 | 0.00 | 0.00 | 48 | 1015.5 |
| 20260508033222 | 64 | 162 | 0.0 | 1.0 | 0.00 | 0.00 | 0.00 | 47 | 1015.5 |
| 20260508032719 | 64 | 160 | 0.0 | 0.0 | 0.00 | 0.00 | 0.00 | 47 | 1015.4 |
| 20260508032216 | 64 | 246 | 0.0 | 2.0 | 0.00 | 0.00 | 0.00 | 46 | 1015.4 |
| 20260508031712 | 65 | 298 | 0.0 | 2.0 | 0.00 | 0.00 | 0.00 | 46 | 1015.4 |
| 20260508031209 | 65 | 22 | 0.0 | 1.0 | 0.00 | 0.00 | 0.00 | 45 | 1015.5 |
| 20260508030705 | 65 | 66 | 0.0 | 0.0 | 0.00 | 0.00 | 0.00 | 45 | 1015.5 |
| 20260508030203 | 65 | 254 | 0.0 | 1.0 | 0.00 | 0.00 | 0.00 | 45 | 1015.5 |
| 20260508025659 | 65 | 219 | 1.0 | 2.0 | 0.00 | 0.00 | 0.00 | 44 | 1015.2 |
| 20260508025156 | 65 | 262 | 0.0 | 1.0 | 0.00 | 0.00 | 0.00 | 44 | 1015.4 |
| 20260508024652 | 64 | 180 | 0.0 | 0.0 | 0.00 | 0.00 | 0.00 | 46 | 1015.2 |
| 20260508024149 | 65 | 209 | 0.0 | 0.0 | 0.00 | 0.00 | 0.00 | 47 | 1015.2 |
| 20260508023645 | 65 | 213 | 0.0 | 0.0 | 0.00 | 0.00 | 0.00 | 48 | 1015.1 |
| 20260508023143 | 66 | 181 | 0.0 | 0.0 | 0.00 | 0.00 | 0.00 | 46 | 1015.0 |
| 20260508022639 | 67 | 208 | 0.0 | 1.0 | 0.00 | 0.00 | 0.00 | 42 | 1015.0 |
| 20260508022136 | 67 | 283 | 0.0 | 1.0 | 0.00 | 0.00 | 0.00 | 42 | 1015.1 |
| 20260508021632 | 67 | 256 | 0.0 | 1.0 | 0.00 | 0.00 | 0.00 | 42 | 1015.3 |
| 20260508021127 | 68 | 189 | 0.0 | 1.0 | 0.00 | 0.00 | 0.00 | 40 | 1015.1 |
| 20260508020626 | 68 | 261 | 0.0 | 0.0 | 0.00 | 0.00 | 0.00 | 40 | 1015.1 |
| 20260508020123 | 68 | 169 | 0.0 | 0.0 | 0.00 | 0.00 | 0.00 | 40 | 1015.1 |
| 20260508015620 | 69 | 169 | 0.0 | 2.0 | 0.00 | 0.00 | 0.00 | 40 | 1015.0 |
| 20260508015117 | 68 | 222 | 0.0 | 1.0 | 0.00 | 0.00 | 0.00 | 40 | 1014.9 |
| 20260508014613 | 69 | 224 | 0.0 | 0.0 | 0.00 | 0.00 | 0.00 | 40 | 1014.9 |
| 20260508014110 | 69 | 159 | 0.0 | 1.0 | 0.00 | 0.00 | 0.00 | 39 | 1014.9 |
| 20260508013606 | 69 | 292 | 1.0 | 1.0 | 0.00 | 0.00 | 0.00 | 38 | 1014.9 |
| 20260508013103 | 70 | 14 | 0.0 | 0.0 | 0.00 | 0.00 | 0.00 | 38 | 1014.7 |
| 20260508012601 | 71 | 266 | 1.0 | 2.0 | 0.00 | 0.00 | 0.00 | 37 | 1015.0 |
| 20260508012058 | 71 | 196 | 1.0 | 2.0 | 0.00 | 0.00 | 0.00 | 37 | 1015.0 |
| 20260508011556 | 71 | 145 | 1.0 | 3.0 | 0.00 | 0.00 | 0.00 | 37 | 1014.7 |
| 20260508011053 | 72 | 321 | 1.0 | 2.0 | 0.00 | 0.00 | 0.00 | 36 | 1014.9 |
| 20260508010549 | 72 | 175 | 0.0 | 2.0 | 0.00 | 0.00 | 0.00 | 36 | 1014.6 |
| 20260508010047 | 72 | 174 | 1.0 | 2.0 | 0.00 | 0.00 | 0.00 | 36 | 1014.6 |
| 20260508005543 | 72 | 272 | 1.0 | 3.0 | 0.00 | 0.00 | 0.00 | 36 | 1014.7 |
| 20260508005034 | 73 | 300 | 1.0 | 2.0 | 0.00 | 0.00 | 0.00 | 35 | 1014.4 |
| 20260508004530 | 73 | 185 | 1.0 | 2.0 | 0.00 | 0.00 | 0.00 | 34 | 1014.4 |
| 20260508004027 | 73 | 71 | 1.0 | 1.0 | 0.00 | 0.00 | 0.00 | 33 | 1014.5 |
| 20260508003524 | 74 | 223 | 1.0 | 3.0 | 0.00 | 0.00 | 0.00 | 33 | 1014.4 |
| 20260508003022 | 74 | 305 | 0.0 | 2.0 | 0.00 | 0.00 | 0.00 | 33 | 1014.3 |
| 20260508002517 | 74 | 169 | 1.0 | 3.0 | 0.00 | 0.00 | 0.00 | 32 | 1014.3 |
| 20260508002015 | 74 | 246 | 1.0 | 2.0 | 0.00 | 0.00 | 0.00 | 32 | 1014.5 |
| 20260508001511 | 75 | 230 | 0.0 | 3.0 | 0.00 | 0.00 | 0.00 | 32 | 1014.5 |
| 20260508001007 | 76 | 105 | 1.0 | 3.0 | 0.00 | 0.00 | 0.00 | 31 | 1014.4 |
| 20260508000502 | 76 | 8 | 0.0 | 0.0 | 0.00 | 0.00 | 0.00 | 31 | 1014.4 |
| 20260507235959 | 76 | 298 | 1.0 | 3.0 | 0.00 | 0.00 | 0.00 | 31 | 1014.6 |
| 20260507235451 | 76 | 61 | 1.0 | 2.0 | 0.00 | 0.00 | 0.00 | 32 | 1014.4 |
| 20260507234948 | 77 | 245 | 2.0 | 2.0 | 0.00 | 0.00 | 0.00 | 30 | 1014.4 |
| 20260507234445 | 77 | 56 | 1.0 | 2.0 | 0.00 | 0.00 | 0.00 | 32 | 1014.7 |
| 20260507233941 | 77 | 221 | 1.0 | 2.0 | 0.00 | 0.00 | 0.00 | 30 | 1014.6 |
| 20260507233438 | 76 | 92 | 1.0 | 3.0 | 0.00 | 0.00 | 0.00 | 31 | 1014.6 |
| 20260507232937 | 77 | 186 | 3.0 | 6.0 | 0.00 | 0.00 | 0.00 | 30 | 1014.8 |
| 20260507232432 | 77 | 250 | 1.0 | 2.0 | 0.00 | 0.00 | 0.00 | 30 | 1014.8 |
| 20260507231929 | 78 | 141 | 0.0 | 3.0 | 0.00 | 0.00 | 0.00 | 30 | 1014.9 |
| 20260507231420 | 77 | 194 | 0.0 | 2.0 | 0.00 | 0.00 | 0.00 | 31 | 1015.1 |
| 20260507230918 | 76 | 245 | 0.0 | 2.0 | 0.00 | 0.00 | 0.00 | 31 | 1014.9 |
| 20260507230415 | 77 | 18 | 1.0 | 4.0 | 0.00 | 0.00 | 0.00 | 31 | 1015.0 |
| 20260507225914 | 77 | 256 | 3.0 | 4.0 | 0.00 | 0.00 | 0.00 | 31 | 1015.1 |
| 20260507225411 | 78 | 22 | 3.0 | 6.0 | 0.00 | 0.00 | 0.00 | 30 | 1015.0 |
| 20260507224907 | 77 | 8 | 0.0 | 2.0 | 0.00 | 0.00 | 0.00 | 29 | 1015.3 |
| 20260507224403 | 78 | 23 | 0.0 | 1.0 | 0.00 | 0.00 | 0.00 | 29 | 1015.0 |
| 20260507223900 | 78 | 33 | 0.0 | 1.0 | 0.00 | 0.00 | 0.00 | 28 | 1015.2 |
| 20260507223357 | 78 | 129 | 1.0 | 3.0 | 0.00 | 0.00 | 0.00 | 27 | 1015.1 |
| 20260507222854 | 78 | 58 | 2.0 | 3.0 | 0.00 | 0.00 | 0.00 | 29 | 1015.0 |
| 20260507222350 | 78 | 240 | 2.0 | 7.0 | 0.00 | 0.00 | 0.00 | 27 | 1015.3 |
| 20260507221847 | 79 | 215 | 0.0 | 1.0 | 0.00 | 0.00 | 0.00 | 28 | 1015.2 |
| 20260507221343 | 78 | 258 | 2.0 | 3.0 | 0.00 | 0.00 | 0.00 | 27 | 1015.4 |
| 20260507220839 | 77 | 267 | 2.0 | 2.0 | 0.00 | 0.00 | 0.00 | 27 | 1015.4 |
| 20260507220338 | 79 | 15 | 0.0 | 2.0 | 0.00 | 0.00 | 0.00 | 29 | 1015.4 |
| 20260507215833 | 78 | 344 | 1.0 | 7.0 | 0.00 | 0.00 | 0.00 | 29 | 1015.4 |
| 20260507215330 | 79 | 205 | 2.0 | 4.0 | 0.00 | 0.00 | 0.00 | 28 | 1015.2 |
| 20260507214827 | 77 | 20 | 1.0 | 2.0 | 0.00 | 0.00 | 0.00 | 29 | 1015.3 |
| 20260507214325 | 77 | 302 | 1.0 | 7.0 | 0.00 | 0.00 | 0.00 | 29 | 1015.5 |
| 20260507213820 | 79 | 126 | 2.0 | 3.0 | 0.00 | 0.00 | 0.00 | 26 | 1015.5 |
| 20260507213318 | 79 | 50 | 0.0 | 2.0 | 0.00 | 0.00 | 0.00 | 30 | 1015.6 |
| 20260507212814 | 78 | 224 | 2.0 | 2.0 | 0.00 | 0.00 | 0.00 | 29 | 1015.7 |
| 20260507212310 | 77 | 226 | 1.0 | 4.0 | 0.00 | 0.00 | 0.00 | 28 | 1015.6 |
| 20260507211807 | 78 | 236 | 4.0 | 7.0 | 0.00 | 0.00 | 0.00 | 28 | 1015.9 |
| 20260507211304 | 77 | 221 | 1.0 | 7.0 | 0.00 | 0.00 | 0.00 | 30 | 1015.9 |
| 20260507210801 | 77 | 225 | 2.0 | 3.0 | 0.00 | 0.00 | 0.00 | 29 | 1015.9 |
| 20260507210257 | 78 | 223 | 2.0 | 3.0 | 0.00 | 0.00 | 0.00 | 29 | 1015.9 |
| 20260507205753 | 78 | 220 | 1.0 | 3.0 | 0.00 | 0.00 | 0.00 | 30 | 1015.8 |
| 20260507205251 | 79 | 348 | 0.0 | 2.0 | 0.00 | 0.00 | 0.00 | 28 | 1016.2 |
| 20260507204747 | 77 | 221 | 0.0 | 2.0 | 0.00 | 0.00 | 0.00 | 32 | 1016.2 |
| 20260507204245 | 76 | 136 | 1.0 | 2.0 | 0.00 | 0.00 | 0.00 | 32 | 1016.3 |
| 20260507203742 | 77 | 220 | 3.0 | 4.0 | 0.00 | 0.00 | 0.00 | 33 | 1016.4 |
| 20260507203240 | 76 | 274 | 1.0 | 3.0 | 0.00 | 0.00 | 0.00 | 31 | 1016.7 |
| 20260507202735 | 76 | 232 | 2.0 | 3.0 | 0.00 | 0.00 | 0.00 | 31 | 1016.8 |
| 20260507202226 | 77 | 208 | 2.0 | 4.0 | 0.00 | 0.00 | 0.00 | 31 | 1016.7 |
| 20260507201720 | 75 | 49 | 2.0 | 3.0 | 0.00 | 0.00 | 0.00 | 33 | 1016.9 |
| 20260507201217 | 74 | 222 | 2.0 | 3.0 | 0.00 | 0.00 | 0.00 | 32 | 1017.0 |
| 20260507200708 | 75 | 91 | 2.0 | 3.0 | 0.00 | 0.00 | 0.00 | 31 | 1017.0 |
| 20260507200205 | 74 | 52 | 0.0 | 3.0 | 0.00 | 0.00 | 0.00 | 34 | 1017.1 |
| 20260507195701 | 75 | 92 | 2.0 | 4.0 | 0.00 | 0.00 | 0.00 | 32 | 1017.3 |
| 20260507195158 | 74 | 40 | 1.0 | 7.0 | 0.00 | 0.00 | 0.00 | 35 | 1017.2 |
| 20260507194655 | 75 | 267 | 4.0 | 6.0 | 0.00 | 0.00 | 0.00 | 33 | 1017.4 |
| 20260507194151 | 74 | 243 | 3.0 | 6.0 | 0.00 | 0.00 | 0.00 | 32 | 1017.3 |
| 20260507193648 | 73 | 338 | 1.0 | 7.0 | 0.00 | 0.00 | 0.00 | 36 | 1017.6 |
| 20260507193145 | 75 | 249 | 1.0 | 4.0 | 0.00 | 0.00 | 0.00 | 35 | 1017.7 |
| 20260507192641 | 74 | 215 | 1.0 | 4.0 | 0.00 | 0.00 | 0.00 | 35 | 1017.8 |
| 20260507192138 | 74 | 186 | 1.0 | 3.0 | 0.00 | 0.00 | 0.00 | 34 | 1017.8 |
| 20260507191633 | 74 | 93 | 1.0 | 7.0 | 0.00 | 0.00 | 0.00 | 33 | 1018.0 |
| 20260507191130 | 74 | 244 | 2.0 | 8.0 | 0.00 | 0.00 | 0.00 | 35 | 1018.0 |
| 20260507190628 | 74 | 244 | 5.0 | 7.0 | 0.00 | 0.00 | 0.00 | 35 | 1018.0 |
| 20260507190127 | 72 | 273 | 1.0 | 1.0 | 0.00 | 0.00 | 0.00 | 36 | 1018.1 |
| 20260507185625 | 72 | 139 | 2.0 | 2.0 | 0.00 | 0.00 | 0.00 | 36 | 1018.1 |
| 20260507185121 | 72 | 262 | 0.0 | 4.0 | 0.00 | 0.00 | 0.00 | 38 | 1018.4 |
| 20260507184619 | 72 | 233 | 2.0 | 6.0 | 0.00 | 0.00 | 0.00 | 38 | 1018.3 |
| 20260507184117 | 72 | 266 | 2.0 | 9.0 | 0.00 | 0.00 | 0.00 | 38 | 1018.4 |
| 20260507183612 | 72 | 255 | 2.0 | 6.0 | 0.00 | 0.00 | 0.00 | 39 | 1018.7 |
| 20260507183110 | 71 | 265 | 2.0 | 4.0 | 0.00 | 0.00 | 0.00 | 39 | 1018.5 |
| 20260507182606 | 71 | 258 | 2.0 | 7.0 | 0.00 | 0.00 | 0.00 | 40 | 1018.7 |
| 20260507182102 | 71 | 168 | 3.0 | 7.0 | 0.00 | 0.00 | 0.00 | 38 | 1018.7 |
| 20260507181559 | 71 | 137 | 4.0 | 6.0 | 0.00 | 0.00 | 0.00 | 39 | 1018.9 |
| 20260507181055 | 71 | 270 | 1.0 | 9.0 | 0.00 | 0.00 | 0.00 | 41 | 1018.9 |
| 20260507180552 | 70 | 256 | 4.0 | 6.0 | 0.00 | 0.00 | 0.00 | 41 | 1018.7 |
| 20260507180049 | 71 | 242 | 0.0 | 3.0 | 0.00 | 0.00 | 0.00 | 41 | 1018.9 |
| 20260507175545 | 69 | 256 | 3.0 | 6.0 | 0.00 | 0.00 | 0.00 | 41 | 1019.2 |
| 20260507175043 | 70 | 60 | 1.0 | 3.0 | 0.00 | 0.00 | 0.00 | 42 | 1019.2 |
| 20260507174539 | 70 | 18 | 1.0 | 4.0 | 0.00 | 0.00 | 0.00 | 43 | 1019.2 |
| 20260507174037 | 69 | 259 | 3.0 | 3.0 | 0.00 | 0.00 | 0.00 | 44 | 1019.4 |
| 20260507173534 | 68 | 258 | 1.0 | 4.0 | 0.00 | 0.00 | 0.00 | 43 | 1019.7 |
| 20260507173031 | 69 | 280 | 4.0 | 6.0 | 0.00 | 0.00 | 0.00 | 41 | 1019.7 |
| 20260507172527 | 69 | 197 | 4.0 | 6.0 | 0.00 | 0.00 | 0.00 | 42 | 1019.9 |
| 20260507172024 | 67 | 50 | 2.0 | 6.0 | 0.00 | 0.00 | 0.00 | 45 | 1019.7 |
| 20260507171519 | 69 | 354 | 0.0 | 1.0 | 0.00 | 0.00 | 0.00 | 47 | 1020.0 |
| 20260507171017 | 68 | 243 | 1.0 | 3.0 | 0.00 | 0.00 | 0.00 | 43 | 1020.0 |
| 20260507170513 | 67 | 139 | 3.0 | 6.0 | 0.00 | 0.00 | 0.00 | 42 | 1020.3 |
| 20260507170010 | 67 | 206 | 2.0 | 6.0 | 0.00 | 0.00 | 0.00 | 43 | 1020.2 |
| 20260507165506 | 67 | 88 | 0.0 | 6.0 | 0.00 | 0.00 | 0.00 | 43 | 1020.3 |
| 20260507165003 | 67 | 28 | 1.0 | 3.0 | 0.00 | 0.00 | 0.00 | 45 | 1020.3 |
| 20260507164459 | 67 | 196 | 3.0 | 4.0 | 0.00 | 0.00 | 0.00 | 44 | 1020.5 |
| 20260507163956 | 66 | 97 | 2.0 | 3.0 | 0.00 | 0.00 | 0.00 | 44 | 1020.4 |
| 20260507163453 | 67 | 239 | 1.0 | 2.0 | 0.00 | 0.00 | 0.00 | 43 | 1020.7 |
| 20260507162950 | 66 | 283 | 2.0 | 6.0 | 0.00 | 0.00 | 0.00 | 46 | 1020.9 |
| 20260507162445 | 66 | 328 | 2.0 | 6.0 | 0.00 | 0.00 | 0.00 | 46 | 1020.7 |
| 20260507161943 | 65 | 91 | 1.0 | 4.0 | 0.00 | 0.00 | 0.00 | 45 | 1020.8 |
| 20260507161439 | 65 | 206 | 3.0 | 7.0 | 0.00 | 0.00 | 0.00 | 45 | 1020.8 |
| 20260507160936 | 65 | 258 | 1.0 | 6.0 | 0.00 | 0.00 | 0.00 | 44 | 1020.7 |
| 20260507160432 | 64 | 62 | 0.0 | 3.0 | 0.00 | 0.00 | 0.00 | 46 | 1020.8 |
| 20260507155927 | 64 | 247 | 4.0 | 4.0 | 0.00 | 0.00 | 0.00 | 44 | 1020.9 |
| 20260507155424 | 64 | 170 | 3.0 | 6.0 | 0.00 | 0.00 | 0.00 | 43 | 1020.8 |
| 20260507154921 | 63 | 280 | 1.0 | 2.0 | 0.00 | 0.00 | 0.00 | 46 | 1020.9 |
| 20260507154418 | 64 | 176 | 3.0 | 7.0 | 0.00 | 0.00 | 0.00 | 45 | 1020.9 |
| 20260507153915 | 65 | 239 | 1.0 | 3.0 | 0.00 | 0.00 | 0.00 | 47 | 1020.9 |
| 20260507153412 | 64 | 335 | 1.0 | 4.0 | 0.00 | 0.00 | 0.00 | 46 | 1021.2 |
| 20260507152908 | 64 | 6 | 3.0 | 4.0 | 0.00 | 0.00 | 0.00 | 46 | 1021.0 |
| 20260507152404 | 64 | 222 | 2.0 | 3.0 | 0.00 | 0.00 | 0.00 | 46 | 1021.0 |
| 20260507151900 | 64 | 89 | 2.0 | 7.0 | 0.00 | 0.00 | 0.00 | 46 | 1021.2 |
| 20260507151356 | 63 | 306 | 2.0 | 6.0 | 0.00 | 0.00 | 0.00 | 47 | 1021.1 |
| 20260507150854 | 63 | 96 | 1.0 | 3.0 | 0.00 | 0.00 | 0.00 | 48 | 1021.1 |
| 20260507150351 | 62 | 249 | 2.0 | 3.0 | 0.00 | 0.00 | 0.00 | 51 | 1021.4 |
| 20260507145847 | 63 | 200 | 1.0 | 1.0 | 0.00 | 0.00 | 0.00 | 50 | 1021.3 |
| 20260507145343 | 62 | 14 | 0.0 | 6.0 | 0.00 | 0.00 | 0.00 | 52 | 1021.3 |
| 20260507144840 | 62 | 0 | 2.0 | 4.0 | 0.00 | 0.00 | 0.00 | 50 | 1021.5 |
| 20260507144337 | 61 | 239 | 3.0 | 4.0 | 0.00 | 0.00 | 0.00 | 52 | 1021.7 |
| 20260507143834 | 60 | 239 | 2.0 | 3.0 | 0.00 | 0.00 | 0.00 | 54 | 1021.6 |
| 20260507143331 | 60 | 340 | 1.0 | 2.0 | 0.00 | 0.00 | 0.00 | 54 | 1021.5 |
| 20260507142827 | 60 | 272 | 1.0 | 3.0 | 0.00 | 0.00 | 0.00 | 56 | 1021.8 |
| 20260507142324 | 59 | 250 | 0.0 | 3.0 | 0.00 | 0.00 | 0.00 | 60 | 1021.7 |
| 20260507141821 | 60 | 122 | 2.0 | 2.0 | 0.00 | 0.00 | 0.00 | 60 | 1021.6 |
| 20260507141317 | 59 | 261 | 0.0 | 1.0 | 0.00 | 0.00 | 0.00 | 60 | 1021.7 |
| 20260507140814 | 58 | 55 | 0.0 | 0.0 | 0.00 | 0.00 | 0.00 | 64 | 1021.8 |
| 20260507140311 | 58 | 216 | 0.0 | 1.0 | 0.00 | 0.00 | 0.00 | 64 | 1022.0 |
| 20260507135809 | 56 | 276 | 0.0 | 1.0 | 0.00 | 0.00 | 0.00 | 67 | 1022.1 |
| 20260507135306 | 56 | 192 | 0.0 | 2.0 | 0.00 | 0.00 | 0.00 | 67 | 1022.2 |
| 20260507134802 | 56 | 165 | 0.0 | 2.0 | 0.00 | 0.00 | 0.00 | 69 | 1022.0 |
| 20260507134258 | 57 | 186 | 0.0 | 1.0 | 0.00 | 0.00 | 0.00 | 67 | 1021.9 |
| 20260507133754 | 57 | 347 | 0.0 | 1.0 | 0.00 | 0.00 | 0.00 | 67 | 1021.9 |
| 20260507133250 | 56 | 347 | 0.0 | 0.0 | 0.00 | 0.00 | 0.00 | 69 | 1021.8 |
| 20260507132749 | 55 | 347 | 0.0 | 0.0 | 0.00 | 0.00 | 0.00 | 71 | 1022.1 |
| 20260507132245 | 54 | 347 | 0.0 | 0.0 | 0.00 | 0.00 | 0.00 | 73 | 1022.0 |
| 20260507131742 | 52 | 166 | 0.0 | 1.0 | 0.00 | 0.00 | 0.00 | 78 | 1021.9 |
| 20260507131239 | 50 | 339 | 0.0 | 0.0 | 0.00 | 0.00 | 0.00 | 83 | 1022.0 |
| 20260507130735 | 49 | 335 | 0.0 | 0.0 | 0.00 | 0.00 | 0.00 | 84 | 1021.9 |
| 20260507130233 | 48 | 335 | 0.0 | 0.0 | 0.00 | 0.00 | 0.00 | 86 | 1021.8 |
| 20260507125732 | 48 | 335 | 0.0 | 0.0 | 0.00 | 0.00 | 0.00 | 88 | 1021.8 |
| 20260507125229 | 47 | 335 | 0.0 | 0.0 | 0.00 | 0.00 | 0.00 | 90 | 1021.8 |
| 20260507124726 | 46 | 335 | 0.0 | 0.0 | 0.00 | 0.00 | 0.00 | 92 | 1021.6 |
| 20260507124222 | 46 | 335 | 0.0 | 0.0 | 0.00 | 0.00 | 0.00 | 93 | 1021.6 |
| 20260507123721 | 45 | 335 | 0.0 | 0.0 | 0.00 | 0.00 | 0.00 | 93 | 1021.6 |
| 20260507123218 | 45 | 335 | 0.0 | 0.0 | 0.00 | 0.00 | 0.00 | 94 | 1021.7 |
| 20260507122713 | 44 | 335 | 0.0 | 0.0 | 0.00 | 0.00 | 0.00 | 94 | 1021.4 |
| 20260507122209 | 44 | 335 | 0.0 | 0.0 | 0.00 | 0.00 | 0.00 | 94 | 1021.6 |
| 20260507121705 | 43 | 335 | 0.0 | 0.0 | 0.00 | 0.00 | 0.00 | 94 | 1021.5 |
| 20260507121201 | 43 | 335 | 0.0 | 0.0 | 0.00 | 0.00 | 0.00 | 94 | 1021.3 |
| 20260507120657 | 43 | 335 | 0.0 | 0.0 | 0.00 | 0.00 | 0.00 | 94 | 1021.1 |
| 20260507120154 | 43 | 335 | 0.0 | 0.0 | 0.00 | 0.00 | 0.00 | 93 | 1021.0 |
| 20260507115651 | 43 | 335 | 0.0 | 0.0 | 0.00 | 0.00 | 0.00 | 93 | 1020.9 |
| 20260507115146 | 43 | 335 | 0.0 | 0.0 | 0.00 | 0.00 | 0.00 | 93 | 1021.2 |
| 20260507114643 | 43 | 335 | 0.0 | 0.0 | 0.00 | 0.00 | 0.00 | 93 | 1021.1 |
| 20260507114140 | 43 | 335 | 0.0 | 0.0 | 0.00 | 0.00 | 0.00 | 93 | 1021.1 |
| 20260507113637 | 43 | 335 | 0.0 | 0.0 | 0.00 | 0.00 | 0.00 | 93 | 1021.2 |
| 20260507113134 | 43 | 335 | 0.0 | 0.0 | 0.00 | 0.00 | 0.00 | 93 | 1021.0 |
| 20260507112632 | 43 | 335 | 0.0 | 0.0 | 0.00 | 0.00 | 0.00 | 93 | 1021.1 |
| 20260507112128 | 43 | 335 | 0.0 | 0.0 | 0.00 | 0.00 | 0.00 | 93 | 1020.9 |
| 20260507111626 | 43 | 335 | 0.0 | 0.0 | 0.00 | 0.00 | 0.00 | 93 | 1021.2 |
| 20260507111122 | 43 | 335 | 0.0 | 0.0 | 0.00 | 0.00 | 0.00 | 92 | 1021.1 |
| 20260507110618 | 43 | 335 | 0.0 | 0.0 | 0.00 | 0.00 | 0.00 | 92 | 1021.1 |
| 20260507110115 | 43 | 335 | 0.0 | 0.0 | 0.00 | 0.00 | 0.00 | 92 | 1021.0 |
| 20260507105612 | 43 | 335 | 0.0 | 0.0 | 0.00 | 0.00 | 0.00 | 92 | 1021.2 |
| 20260507105108 | 43 | 335 | 0.0 | 0.0 | 0.00 | 0.00 | 0.00 | 92 | 1021.2 |
| 20260507104606 | 43 | 335 | 0.0 | 0.0 | 0.00 | 0.00 | 0.00 | 92 | 1021.1 |
| 20260507104102 | 44 | 335 | 0.0 | 0.0 | 0.00 | 0.00 | 0.00 | 92 | 1021.2 |
| 20260507103558 | 43 | 335 | 0.0 | 0.0 | 0.00 | 0.00 | 0.00 | 92 | 1021.0 |
| 20260507103055 | 43 | 335 | 0.0 | 0.0 | 0.00 | 0.00 | 0.00 | 92 | 1021.1 |
| 20260507102551 | 43 | 335 | 0.0 | 0.0 | 0.00 | 0.00 | 0.00 | 92 | 1021.0 |
| 20260507102047 | 44 | 335 | 0.0 | 0.0 | 0.00 | 0.00 | 0.00 | 91 | 1021.0 |
| 20260507101543 | 43 | 335 | 0.0 | 0.0 | 0.00 | 0.00 | 0.00 | 91 | 1021.2 |
| 20260507101039 | 43 | 335 | 0.0 | 0.0 | 0.00 | 0.00 | 0.00 | 91 | 1021.1 |
| 20260507100537 | 44 | 335 | 0.0 | 0.0 | 0.00 | 0.00 | 0.00 | 91 | 1020.9 |
| 20260507100035 | 44 | 335 | 0.0 | 0.0 | 0.00 | 0.00 | 0.00 | 91 | 1020.6 |
| 20260507095533 | 44 | 335 | 0.0 | 0.0 | 0.00 | 0.00 | 0.00 | 91 | 1020.8 |
| 20260507095029 | 44 | 335 | 0.0 | 0.0 | 0.00 | 0.00 | 0.00 | 91 | 1020.7 |
| 20260507094525 | 44 | 335 | 0.0 | 0.0 | 0.00 | 0.00 | 0.00 | 91 | 1020.8 |
| 20260507094022 | 44 | 335 | 0.0 | 0.0 | 0.00 | 0.00 | 0.00 | 91 | 1020.8 |
| 20260507093520 | 44 | 335 | 0.0 | 0.0 | 0.00 | 0.00 | 0.00 | 91 | 1021.0 |
| 20260507093018 | 44 | 335 | 0.0 | 0.0 | 0.00 | 0.00 | 0.00 | 91 | 1021.0 |
| 20260507092514 | 44 | 335 | 0.0 | 0.0 | 0.00 | 0.00 | 0.00 | 92 | 1020.9 |
| 20260507092011 | 44 | 335 | 0.0 | 0.0 | 0.00 | 0.00 | 0.00 | 92 | 1020.7 |
| 20260507091508 | 43 | 335 | 0.0 | 0.0 | 0.00 | 0.00 | 0.00 | 91 | 1021.1 |
| 20260507091004 | 43 | 335 | 0.0 | 0.0 | 0.00 | 0.00 | 0.00 | 91 | 1020.8 |
| 20260507090500 | 44 | 335 | 0.0 | 0.0 | 0.00 | 0.00 | 0.00 | 91 | 1020.9 |
| 20260507085956 | 43 | 335 | 0.0 | 0.0 | 0.00 | 0.00 | 0.00 | 91 | 1020.6 |
| 20260507085454 | 44 | 335 | 0.0 | 0.0 | 0.00 | 0.00 | 0.00 | 90 | 1020.4 |
| 20260507084950 | 44 | 335 | 0.0 | 0.0 | 0.00 | 0.00 | 0.00 | 90 | 1020.6 |
| 20260507084447 | 44 | 335 | 0.0 | 0.0 | 0.00 | 0.00 | 0.00 | 90 | 1020.7 |
| 20260507083944 | 44 | 335 | 0.0 | 0.0 | 0.00 | 0.00 | 0.00 | 89 | 1021.0 |
| 20260507083441 | 44 | 335 | 0.0 | 0.0 | 0.00 | 0.00 | 0.00 | 89 | 1020.5 |
| 20260507082937 | 44 | 335 | 0.0 | 0.0 | 0.00 | 0.00 | 0.00 | 89 | 1020.5 |
| 20260507082433 | 45 | 335 | 0.0 | 0.0 | 0.00 | 0.00 | 0.00 | 88 | 1020.7 |
| 20260507081930 | 44 | 335 | 0.0 | 0.0 | 0.00 | 0.00 | 0.00 | 88 | 1021.2 |
| 20260507081426 | 44 | 335 | 0.0 | 0.0 | 0.00 | 0.00 | 0.00 | 88 | 1021.0 |
| 20260507080923 | 45 | 335 | 0.0 | 0.0 | 0.00 | 0.00 | 0.00 | 88 | 1021.0 |
| 20260507080419 | 45 | 335 | 0.0 | 0.0 | 0.00 | 0.00 | 0.00 | 88 | 1020.9 |
| 20260507075920 | 45 | 335 | 0.0 | 0.0 | 0.00 | 0.00 | 0.00 | 87 | 1020.7 |
| 20260507075416 | 45 | 335 | 0.0 | 0.0 | 0.00 | 0.00 | 0.00 | 87 | 1020.8 |
| 20260507074913 | 46 | 335 | 0.0 | 0.0 | 0.00 | 0.00 | 0.00 | 87 | 1020.7 |
| 20260507074410 | 46 | 335 | 0.0 | 0.0 | 0.00 | 0.00 | 0.00 | 87 | 1020.7 |
| 20260507073908 | 45 | 335 | 0.0 | 0.0 | 0.00 | 0.00 | 0.00 | 87 | 1021.0 |
| 20260507073404 | 45 | 335 | 0.0 | 0.0 | 0.00 | 0.00 | 0.00 | 87 | 1021.2 |
| 20260507072901 | 45 | 335 | 0.0 | 0.0 | 0.00 | 0.00 | 0.00 | 87 | 1021.0 |
| 20260507072358 | 45 | 335 | 0.0 | 0.0 | 0.00 | 0.00 | 0.00 | 87 | 1020.9 |
| 20260507071856 | 45 | 335 | 0.0 | 0.0 | 0.00 | 0.00 | 0.00 | 86 | 1020.9 |
| 20260507071353 | 45 | 335 | 0.0 | 0.0 | 0.00 | 0.00 | 0.00 | 86 | 1021.0 |
| 20260507070848 | 45 | 335 | 0.0 | 0.0 | 0.00 | 0.00 | 0.00 | 86 | 1020.9 |
| 20260507070346 | 45 | 335 | 0.0 | 0.0 | 0.00 | 0.00 | 0.00 | 86 | 1020.8 |
| 20260507065843 | 45 | 335 | 0.0 | 0.0 | 0.00 | 0.00 | 0.00 | 85 | 1020.8 |